Location: Jaboat�o
(8.1170°S, 35.0170°W)
Time: 20:19:45
(UTC-03:00)

BlueWalker 3 - Pass Details

Date: 22 June 2024
Orbit: 480 x 491 km, 53.2° (Epoch: 21 July)

Event Time Altitude Azimuth Distance (km) Brightness Sun altitude
Rises 05:01:48 0° 322° (NW) 2,529 5.3 -7.9°
Reaches altitude 10° 05:03:57 10° 320° (NW) 1,656 4.4 -7.4°
Maximum altitude 05:07:40 70° 236° (SW) 520 1.8 -6.5°
Drops below altitude 10° 05:11:26 10° 151° (SSE) 1,677 4.7 -5.7°
Sets 05:13:38 0° 149° (SSE) 2,564 5.6 -5.2°
